GW5694 Weather Reports


time (UTC)temp
C
wind
direction
speed
KPH
gust
KPH
rain 1hr
cm
rain 24hr
cm
rain mn
cm
humidity
%
barometer
mb
20260507203049 18 316 1.6 1.6 0.00 0.03 0.03 61 1007.4
20260507202544 18 205 9.7 11.3 0.00 0.03 0.03 62 1007.6
20260507202041 18 182 1.6 3.2 0.00 0.03 0.03 58 1007.6
20260507201536 17 175 1.6 3.2 0.00 0.03 0.03 60 1007.5
20260507201033 18 289 1.6 1.6 0.00 0.03 0.03 59 1007.7
20260507200528 18 184 3.2 3.2 0.00 0.03 0.03 59 1007.7
20260507200025 17 180 8.0 11.3 0.00 0.03 0.03 61 1007.9
20260507195522 17 135 4.8 4.8 0.00 0.03 0.03 58 1008.0
20260507195020 18 192 9.7 12.9 0.00 0.03 0.03 57 1007.9
20260507194516 18 179 1.6 3.2 0.00 0.03 0.03 60 1008.0
20260507194012 18 153 4.8 4.8 0.00 0.03 0.03 56 1007.7
20260507193509 18 206 6.4 8.0 0.00 0.03 0.03 59 1008.1
20260507193006 17 153 6.4 8.0 0.00 0.03 0.03 57 1008.4
20260507192502 17 215 4.8 4.8 0.00 0.03 0.03 59 1008.6
20260507191959 17 103 3.2 4.8 0.00 0.03 0.03 61 1008.7
20260507191454 17 123 0.0 0.0 0.00 0.03 0.03 60 1008.5
20260507190952 17 121 1.6 1.6 0.00 0.03 0.03 61 1008.7
20260507190449 17 167 6.4 9.7 0.00 0.03 0.03 60 1008.5
20260507185948 17 135 4.8 8.0 0.00 0.03 0.03 60 1008.7
20260507185445 17 162 1.6 3.2 0.00 0.03 0.03 61 1008.9
20260507184941 16 135 0.0 1.6 0.00 0.03 0.03 63 1008.7
20260507184439 17 166 8.0 11.3 0.00 0.03 0.03 60 1008.8
20260507183937 17 188 6.4 8.0 0.00 0.03 0.03 62 1008.7
20260507183434 17 33 4.8 4.8 0.00 0.03 0.03 64 1008.8
20260507182931 17 124 1.6 4.8 0.00 0.03 0.03 62 1008.8
20260507182427 17 132 0.0 0.0 0.00 0.03 0.03 62 1009.0
20260507181923 17 176 3.2 4.8 0.00 0.03 0.03 61 1009.0
20260507181419 16 101 1.6 3.2 0.00 0.03 0.03 63 1009.0
20260507180916 15 37 1.6 3.2 0.00 0.03 0.03 63 1009.0
20260507180413 16 183 1.6 3.2 0.00 0.03 0.03 62 1009.2
20260507175909 16 183 6.4 8.0 0.00 0.03 0.03 64 1009.3
20260507175406 15 186 6.4 8.0 0.00 0.03 0.03 65 1009.3
20260507174903 15 248 8.0 9.7 0.00 0.03 0.03 63 1009.4
20260507174400 16 153 3.2 3.2 0.00 0.03 0.03 63 1009.3
20260507173858 16 119 0.0 0.0 0.00 0.03 0.03 62 1009.6
20260507173355 15 151 0.0 0.0 0.00 0.03 0.03 65 1009.4
20260507172851 15 183 3.2 3.2 0.00 0.03 0.03 64 1009.7
20260507172348 15 132 3.2 3.2 0.00 0.03 0.03 63 1009.7
20260507171844 15 201 3.2 4.8 0.00 0.03 0.03 65 1009.9
20260507171341 15 160 1.6 3.2 0.00 0.03 0.03 69 1010.0
20260507170838 14 174 1.6 1.6 0.00 0.03 0.03 69 1010.2
20260507170334 15 156 1.6 1.6 0.00 0.03 0.03 68 1010.2
20260507165830 14 183 4.8 4.8 0.00 0.03 0.03 68 1010.3
20260507165326 15 183 1.6 3.2 0.00 0.03 0.03 68 1010.3
20260507164822 15 187 1.6 4.8 0.00 0.03 0.03 68 1010.4
20260507164320 15 211 1.6 1.6 0.00 0.03 0.03 68 1010.4
20260507163817 13 136 0.0 1.6 0.00 0.03 0.03 71 1010.6
20260507163314 12 349 6.4 8.0 0.00 0.03 0.03 73 1010.6
20260507162810 13 100 3.2 3.2 0.00 0.03 0.03 75 1010.8
20260507162307 12 55 3.2 3.2 0.00 0.03 0.03 73 1010.8
20260507161804 12 32 1.6 1.6 0.00 0.03 0.03 74 1010.7
20260507161300 12 87 1.6 3.2 0.00 0.03 0.03 76 1011.2
20260507160756 12 295 1.6 1.6 0.00 0.03 0.03 74 1011.2
20260507160252 12 154 0.0 0.0 0.00 0.03 0.03 74 1011.6
20260507155748 11 274 3.2 3.2 0.00 0.03 0.03 75 1011.6
20260507155244 12 21 4.8 4.8 0.00 0.03 0.03 76 1011.5
20260507154741 11 165 0.0 1.6 0.00 0.03 0.03 76 1011.3
20260507154239 11 321 6.4 8.0 0.00 0.03 0.03 76 1011.3
20260507153735 11 3 4.8 4.8 0.00 0.03 0.03 76 1011.4
20260507153232 11 1 8.0 9.7 0.00 0.03 0.03 77 1011.4
20260507152728 11 318 1.6 3.2 0.00 0.03 0.03 79 1011.4
20260507152225 11 358 3.2 4.8 0.00 0.03 0.03 79 1011.3
20260507151721 11 18 4.8 4.8 0.00 0.03 0.03 78 1011.4
20260507151217 11 340 3.2 3.2 0.00 0.03 0.03 81 1011.4
20260507150714 11 7 6.4 8.0 0.00 0.03 0.03 79 1011.3
20260507150211 11 5 4.8 4.8 0.00 0.03 0.03 81 1011.5
20260507145707 11 324 6.4 8.0 0.00 0.03 0.03 81 1011.7
20260507145204 11 32 3.2 4.8 0.00 0.03 0.03 81 1011.6
20260507144700 11 10 4.8 4.8 0.00 0.03 0.03 82 1011.5
20260507144159 11 113 1.6 1.6 0.00 0.03 0.03 83 1011.9
20260507143655 10 106 1.6 1.6 0.00 0.03 0.03 84 1011.8
20260507143152 11 359 3.2 3.2 0.00 0.03 0.03 85 1011.8
20260507142647 11 347 6.4 8.0 0.00 0.03 0.03 85 1012.1
20260507142145 11 335 6.4 8.0 0.00 0.03 0.03 87 1012.0
20260507141641 11 74 1.6 1.6 0.00 0.03 0.03 87 1012.1
20260507141138 11 7 3.2 3.2 0.00 0.03 0.03 87 1012.0
20260507140634 11 2 8.0 9.7 0.00 0.03 0.03 87 1012.1
20260507140132 11 0 4.8 4.8 0.00 0.03 0.03 87 1012.3
20260507135628 11 214 4.8 4.8 0.00 0.03 0.03 87 1012.1
20260507135126 11 351 1.6 3.2 0.00 0.03 0.03 89 1012.0
20260507134622 11 276 6.4 8.0 0.00 0.03 0.03 88 1012.1
20260507134118 11 2 4.8 4.8 0.00 0.03 0.03 88 1011.9
20260507133614 11 336 6.4 8.0 0.00 0.03 0.03 87 1012.2
20260507133112 11 349 6.4 8.0 0.00 0.03 0.03 87 1012.1
20260507132609 11 294 6.4 11.3 0.00 0.03 0.03 89 1012.0
20260507132105 11 336 8.0 9.7 0.00 0.03 0.03 89 1012.0
20260507131602 11 3 6.4 8.0 0.00 0.03 0.03 91 1012.0
20260507131100 11 353 8.0 9.7 0.00 0.03 0.03 92 1012.2
20260507130556 11 336 6.4 8.0 0.00 0.03 0.03 92 1012.1
20260507130054 11 339 6.4 8.0 0.00 0.03 0.03 92 1012.4
20260507125553 11 358 4.8 4.8 0.00 0.03 0.03 92 1012.2
20260507125050 11 196 3.2 3.2 0.00 0.03 0.03 92 1012.1
20260507124546 11 333 3.2 3.2 0.00 0.03 0.03 92 1012.0
20260507124044 11 343 3.2 3.2 0.00 0.03 0.03 92 1012.2
20260507123542 11 76 1.6 1.6 0.00 0.03 0.03 92 1012.3
20260507123038 11 33 4.8 4.8 0.00 0.03 0.03 92 1012.3
20260507122533 11 130 0.0 0.0 0.00 0.03 0.03 93 1012.4
20260507122030 11 334 1.6 1.6 0.00 0.03 0.03 93 1012.0
20260507121525 11 342 3.2 3.2 0.00 0.03 0.03 93 1011.9
20260507121021 11 326 4.8 4.8 0.00 0.03 0.03 93 1011.8
20260507120518 11 148 1.6 1.6 0.00 0.03 0.03 94 1011.6
20260507120015 10 353 3.2 3.2 0.00 0.03 0.03 94 1011.6
20260507115511 10 17 3.2 3.2 0.00 0.03 0.03 94 1011.6
20260507115007 10 316 4.8 4.8 0.00 0.03 0.03 94 1011.7
20260507114503 10 349 3.2 3.2 0.00 0.03 0.03 94 1011.7
20260507114000 10 18 1.6 3.2 0.00 0.03 0.03 94 1011.7
20260507113458 10 13 3.2 3.2 0.00 0.03 0.03 94 1011.7
20260507112955 10 337 1.6 3.2 0.00 0.03 0.03 95 1011.8
20260507112452 10 354 1.6 3.2 0.00 0.03 0.03 94 1011.7
20260507111949 10 356 1.6 1.6 0.00 0.03 0.03 94 1011.5
20260507111446 10 351 3.2 3.2 0.00 0.03 0.03 94 1011.8
20260507110942 10 115 0.0 0.0 0.00 0.03 0.03 95 1011.5
20260507110439 10 32 1.6 1.6 0.00 0.03 0.03 95 1011.5
20260507105935 10 148 1.6 1.6 0.00 0.03 0.03 95 1011.5
20260507105432 10 317 1.6 3.2 0.00 0.03 0.03 95 1011.3
20260507104929 10 352 1.6 3.2 0.00 0.03 0.03 95 1011.2
20260507104426 10 340 3.2 3.2 0.00 0.03 0.03 95 1011.3
20260507103926 10 2 3.2 3.2 0.00 0.03 0.03 95 1011.1
20260507103424 10 74 1.6 1.6 0.00 0.03 0.03 95 1011.3
20260507102919 10 84 0.0 0.0 0.00 0.03 0.03 95 1011.3
20260507102417 10 121 0.0 0.0 0.00 0.03 0.03 95 1011.4
20260507101913 11 121 0.0 0.0 0.00 0.03 0.03 95 1011.5
20260507101408 10 111 0.0 0.0 0.00 0.03 0.03 94 1011.4
20260507100905 11 147 0.0 0.0 0.00 0.03 0.03 95 1011.4
20260507100402 10 119 0.0 0.0 0.00 0.03 0.03 94 1011.2
20260507095901 10 111 0.0 0.0 0.00 0.03 0.03 94 1011.3
20260507095357 11 27 3.2 3.2 0.00 0.03 0.03 94 1011.1
20260507094854 11 156 0.0 1.6 0.00 0.03 0.03 94 1011.4
20260507094351 11 165 0.0 0.0 0.00 0.03 0.03 94 1011.2
20260507093848 10 119 0.0 0.0 0.00 0.03 0.03 93 1010.8
20260507093346 10 117 0.0 0.0 0.00 0.03 0.03 93 1011.2
20260507092844 10 103 0.0 1.6 0.00 0.03 0.03 93 1010.7
20260507092340 10 121 0.0 0.0 0.00 0.03 0.03 92 1011.0
20260507091836 11 121 0.0 0.0 0.00 0.03 0.03 92 1011.0
20260507091333 11 125 0.0 0.0 0.00 0.03 0.03 92 1011.1
20260507090829 11 6 3.2 3.2 0.00 0.03 0.03 91 1010.8
20260507090325 11 295 3.2 3.2 0.00 0.03 0.03 91 1011.1
20260507085822 11 83 0.0 1.6 0.00 0.03 0.03 91 1010.8
20260507085319 11 35 4.8 4.8 0.00 0.03 0.03 91 1010.6
20260507084817 11 54 1.6 3.2 0.00 0.03 0.03 91 1010.8
20260507084313 11 337 4.8 4.8 0.00 0.03 0.03 92 1010.6
20260507083810 11 341 9.7 11.3 0.00 0.03 0.03 92 1010.5
20260507083306 11 3 6.4 8.0 0.00 0.03 0.03 93 1010.6
20260507082802 11 349 4.8 4.8 0.00 0.03 0.03 93 1010.4
20260507082258 11 37 3.2 3.2 0.00 0.03 0.03 93 1010.6
20260507081756 11 38 4.8 4.8 0.00 0.03 0.03 93 1010.6
20260507081251 11 295 4.8 4.8 0.00 0.03 0.03 94 1011.1
20260507080748 11 2 4.8 4.8 0.00 0.03 0.03 94 1011.1
20260507080244 11 332 4.8 4.8 0.00 0.03 0.03 94 1011.0
20260507075740 11 340 4.8 4.8 0.00 0.03 0.03 94 1010.7
20260507075236 11 15 4.8 8.0 0.00 0.03 0.03 94 1010.8
20260507074732 11 337 8.0 8.0 0.00 0.03 0.03 94 1011.0
20260507074231 11 337 8.0 9.7 0.00 0.03 0.03 94 1010.7
20260507073727 11 7 8.0 11.3 0.00 0.03 0.03 95 1010.6
20260507073224 11 335 4.8 4.8 0.00 0.03 0.03 95 1010.4
20260507072722 11 338 4.8 4.8 0.00 0.03 0.03 95 1010.6
20260507072219 11 10 6.4 8.0 0.00 0.03 0.03 95 1010.0
20260507071717 11 344 1.6 3.2 0.00 0.03 0.03 95 1010.1
20260507071213 12 335 3.2 3.2 0.00 0.03 0.03 95 1010.3
20260507070710 12 355 3.2 3.2 0.00 0.03 0.03 95 1010.3
20260507070207 12 31 1.6 3.2 0.00 0.03 0.03 95 1010.4
20260507065703 12 211 1.6 1.6 0.00 0.03 0.03 95 1010.0
20260507065200 12 338 1.6 3.2 0.00 0.03 0.03 95 1009.8
20260507064657 12 354 4.8 8.0 0.00 0.03 0.03 95 1010.0
20260507064155 12 61 3.2 3.2 0.00 0.03 0.03 95 1010.0
20260507063653 12 6 3.2 3.2 0.00 0.03 0.03 96 1010.4
20260507063150 12 256 3.2 3.2 0.00 0.03 0.03 96 1010.2
20260507062646 12 239 3.2 4.8 0.00 0.03 0.03 96 1010.4
20260507062144 12 29 1.6 3.2 0.00 0.03 0.03 97 1010.0
20260507061642 12 323 4.8 4.8 0.00 0.03 0.03 97 1009.8
20260507061140 12 346 4.8 4.8 0.00 0.03 0.03 97 1009.8
20260507060637 12 12 1.6 3.2 0.00 0.03 0.03 97 1010.1
20260507060133 12 81 1.6 1.6 0.00 0.03 0.03 97 1010.2
20260507055629 12 348 3.2 3.2 0.00 0.03 0.03 97 1010.2
20260507055125 12 115 3.2 3.2 0.00 0.03 0.03 97 1010.3
20260507054621 12 332 8.0 8.0 0.00 0.03 0.03 97 1010.2
20260507054119 12 355 9.7 11.3 0.00 0.03 0.03 97 1010.3
20260507053617 12 326 11.3 12.9 0.00 0.03 0.03 98 1010.4
20260507053115 12 332 17.7 17.7 0.00 0.03 0.03 98 1009.9
20260507052613 12 305 8.0 9.7 0.00 0.03 0.03 98 1010.0
20260507052109 12 348 11.3 14.5 0.00 0.03 0.03 98 1009.8
20260507051606 12 325 8.0 11.3 0.00 0.03 0.03 98 1010.0
20260507051103 12 340 11.3 12.9 0.00 0.03 0.03 98 1009.8
20260507050600 12 297 4.8 8.0 0.00 0.03 0.03 98 1009.9
20260507050056 13 337 9.7 11.3 0.00 0.03 0.03 98 1009.6
20260507045553 13 354 9.7 9.7 0.00 0.03 0.03 98 1009.3
20260507045050 13 329 8.0 8.0 0.00 0.03 0.03 98 1009.5
20260507044547 13 337 4.8 4.8 0.00 0.03 0.03 98 1009.2
20260507044044 14 318 4.8 4.8 0.00 0.03 0.03 98 1009.4
20260507043539 14 182 1.6 3.2 0.00 0.03 0.03 98 1009.0
20260507043037 14 143 1.6 3.2 0.00 0.03 0.03 98 1009.2
20260507042533 14 169 1.6 1.6 0.00 0.03 0.03 98 1009.3
20260507042028 14 133 0.0 0.0 0.00 0.03 0.03 98 1009.5
20260507041526 14 47 0.0 0.0 0.00 0.03 0.03 97 1009.6
20260507041022 14 24 4.8 4.8 0.18 0.03 0.03 97 1009.6
20260507040519 14 340 6.4 8.0 0.30 0.03 0.03 97 1009.9
20260507040015 14 299 9.7 11.3 1.37 0.00 0.00 97 1009.8
20260507035511 14 334 4.8 8.0 1.55 0.53 0.53 97 1010.4
20260507035008 15 240 9.7 12.9 0.43 0.33 0.33 97 1010.6
20260507034505 15 346 4.8 8.0 0.13 0.28 0.28 96 1010.0
20260507034003 15 197 4.8 4.8 0.00 0.25 0.25 96 1009.9
20260507033500 15 211 4.8 4.8 0.00 0.25 0.25 96 1010.0
20260507032957 15 103 0.0 0.0 0.00 0.25 0.25 96 1009.7
20260507032454 15 339 4.8 4.8 0.00 0.25 0.25 96 1009.9
20260507031950 16 223 3.2 4.8 0.18 0.25 0.25 96 1009.9
20260507031446 16 345 6.4 8.0 0.18 0.25 0.25 95 1010.0
20260507030944 16 16 6.4 8.0 0.00 0.23 0.23 95 1009.8
20260507030441 16 357 9.7 11.3 0.00 0.23 0.23 95 1009.8
20260507025938 16 38 8.0 11.3 0.00 0.23 0.23 95 1009.8
20260507025435 16 3 4.8 4.8 0.00 0.23 0.23 95 1009.6
20260507024933 16 212 3.2 3.2 0.00 0.23 0.23 94 1009.8
20260507024430 16 135 0.0 0.0 0.00 0.23 0.23 94 1009.5
20260507023926 16 132 0.0 0.0 0.00 0.23 0.23 94 1009.6
20260507023423 16 98 0.0 0.0 0.00 0.23 0.23 94 1009.4
20260507022920 16 46 3.2 3.2 0.00 0.23 0.23 94 1009.4
20260507022417 16 358 4.8 8.0 0.00 0.23 0.23 94 1009.0
20260507021912 16 7 8.0 9.7 0.00 0.23 0.23 94 1009.1
20260507021408 16 351 8.0 9.7 0.00 0.23 0.23 94 1009.1
20260507020906 16 351 9.7 12.9 0.00 0.23 0.23 93 1009.1
20260507020402 17 334 8.0 11.3 0.00 0.23 0.23 93 1009.0
20260507015859 17 21 4.8 4.8 0.00 0.23 0.23 91 1008.8
20260507015357 17 316 8.0 9.7 0.00 0.23 0.23 89 1009.0
20260507014854 17 292 3.2 3.2 0.00 0.23 0.23 87 1009.0
20260507014350 17 342 6.4 8.0 0.00 0.23 0.23 88 1008.9
20260507013847 17 276 1.6 1.6 0.00 0.23 0.23 88 1009.0
20260507013344 17 178 1.6 1.6 0.00 0.23 0.23 88 1008.6
20260507012841 17 357 4.8 4.8 0.00 0.23 0.23 87 1008.6
20260507012337 17 0 3.2 3.2 0.00 0.23 0.23 87 1008.6
20260507011835 17 28 4.8 4.8 0.00 0.23 0.23 87 1008.9
20260507011332 17 0 9.7 11.3 0.00 0.23 0.23 87 1008.9
20260507010831 17 322 9.7 11.3 0.00 0.23 0.23 89 1008.9
20260507010327 17 0 8.0 9.7 0.00 0.23 0.23 89 1009.0
20260507005825 18 350 8.0 9.7 0.00 0.23 0.23 91 1008.9
20260507005321 17 330 4.8 4.8 0.00 0.23 0.23 92 1008.9
20260507004818 17 350 8.0 9.7 0.00 0.23 0.23 92 1009.1
20260507004315 18 342 8.0 9.7 0.00 0.23 0.23 91 1009.3
20260507003812 18 15 8.0 9.7 0.00 0.23 0.23 91 1009.1
20260507003307 18 334 8.0 9.7 0.00 0.23 0.23 91 1009.1
20260507002803 18 337 9.7 9.7 0.00 0.23 0.23 90 1009.1
20260507002259 18 19 9.7 11.3 0.00 0.23 0.23 88 1008.7
20260507001756 19 338 6.4 9.7 0.00 0.23 0.23 88 1008.9
20260507001254 20 1 12.9 16.1 0.00 0.23 0.23 87 1008.8
20260507000750 20 19 8.0 11.3 0.00 0.23 0.23 81 1008.7
20260507000246 21 143 0.0 0.0 0.00 0.23 0.23 79 1008.3
20260506235743 21 163 1.6 1.6 0.00 0.23 0.23 77 1008.2
20260506235238 21 82 1.6 1.6 0.00 0.23 0.23 78 1008.3
20260506234735 21 146 1.6 1.6 0.00 0.23 0.23 77 1007.9
20260506234232 21 109 1.6 1.6 0.00 0.23 0.23 76 1007.7
20260506233730 21 195 0.0 1.6 0.00 0.23 0.23 77 1007.9
20260506233226 21 184 3.2 4.8 0.00 0.23 0.23 76 1008.1
20260506232723 21 89 1.6 1.6 0.00 0.23 0.23 75 1007.9
20260506232218 21 217 6.4 8.0 0.00 0.23 0.23 75 1007.9
20260506231715 22 160 6.4 9.7 0.00 0.23 0.23 74 1008.0
20260506231214 22 143 6.4 9.7 0.00 0.23 0.23 73 1008.0
20260506230710 22 108 4.8 8.0 0.00 0.23 0.23 73 1007.7
20260506230207 22 170 6.4 8.0 0.00 0.23 0.23 73 1007.6
20260506225703 22 156 6.4 8.0 0.00 0.23 0.23 73 1007.9
20260506225200 22 154 3.2 3.2 0.00 0.23 0.23 73 1007.5
20260506224657 22 166 4.8 9.7 0.00 0.23 0.23 72 1007.5
20260506224154 22 181 3.2 4.8 0.00 0.23 0.23 72 1007.5
20260506223650 22 196 11.3 14.5 0.00 0.23 0.23 71 1007.5
20260506223146 22 150 12.9 16.1 0.00 0.23 0.23 71 1007.5
20260506222643 22 172 12.9 17.7 0.00 0.23 0.23 71 1007.6
20260506222139 22 182 8.0 11.3 0.00 0.23 0.23 71 1007.5
20260506221637 22 86 8.0 11.3 0.00 0.23 0.23 71 1007.6
20260506221135 22 164 8.0 12.9 0.00 0.23 0.23 70 1007.6
20260506220631 23 183 9.7 12.9 0.00 0.23 0.23 70 1007.4
20260506220126 23 156 8.0 9.7 0.00 0.23 0.23 68 1007.3
20260506215623 23 176 11.3 12.9 0.00 0.23 0.23 69 1007.5
20260506215119 22 183 9.7 12.9 0.00 0.23 0.23 69 1007.9
20260506214616 22 192 12.9 16.1 0.00 0.23 0.23 69 1007.6
20260506214113 23 174 11.3 12.9 0.00 0.23 0.23 69 1007.3
20260506213611 23 150 6.4 9.7 0.00 0.23 0.23 69 1007.4
20260506213108 23 141 4.8 4.8 0.00 0.23 0.23 70 1007.3
20260506212605 23 132 4.8 4.8 0.00 0.23 0.23 69 1007.4
20260506212100 23 136 3.2 3.2 0.00 0.23 0.23 70 1007.3
20260506211556 23 162 6.4 9.7 0.00 0.23 0.23 69 1007.3
20260506211053 22 181 11.3 12.9 0.00 0.23 0.23 69 1007.4
20260506210550 22 158 9.7 12.9 0.00 0.23 0.23 69 1007.2
20260506210046 22 180 9.7 11.3 0.00 0.23 0.23 69 1007.3
20260506205543 22 175 4.8 4.8 0.00 0.23 0.23 70 1007.3
20260506205038 22 174 3.2 4.8 0.00 0.23 0.23 70 1007.2
20260506204537 22 125 8.0 11.3 0.00 0.23 0.23 70 1007.2
20260506204033 22 230 6.4 9.7 0.00 0.23 0.23 70 1007.1
20260506203532 22 159 8.0 12.9 0.00 0.23 0.23 70 1007.0